Location: ??????????
(48.4699°N, 37.9573°E)
Time: 20:44:22
(UTC+00:00)

Cosmos 1536 Rocket - Pass Details

Date: 20 January 2021
Orbit: 605 x 632 km, 82.5° (Epoch: 01 March)

Event Time Altitude Azimuth Distance (km) Brightness Sun altitude
Rises 14:39:37 0° 191° (S) 2,871 7.5 -5.5°
Reaches altitude 10° 14:41:49 10° 193° (SSW) 1,975 6.7 -5.8°
Maximum altitude 14:46:12 79° 280° (W) 639 3.8 -6.5°
Drops below altitude 10° 14:50:40 10° 7° (N) 2,009 5.9 -7.2°
Sets 14:52:55 0° 9° (N) 2,925 6.7 -7.5°
